Simultaneous Nadir Overpasses (SNOs) Predictions

Prediction of SNOs between GOES-15 and METOP-B Satellite Orbit:

Table of predicted SNOs for the next 14.0 days since TLE Epoch: 6/8/2024
Index Date Time (GOES-15) GOES-15 Lat,Lon METOP-B Lat,Lon Distance(km) Time Diff (sec)
1 06/08/2024 17:27:54 0.19, 61.44 -0.35, 58.96 281.68 80
2 06/09/2024 17:04:32 0.21, 61.42 0.78, 63.96 289.22 80
3 06/11/2024 05:25:58 -0.19, 61.39 0.24, 59.41 225.65 80
4 06/12/2024 05:02:35 -0.21, 61.38 -0.89, 64.41 344.95 80
5 06/13/2024 17:24:11 0.19, 61.38 -0.13, 59.82 177.08 80
6 06/14/2024 17:00:47 0.21, 61.36 0.95, 64.83 393.89 80
7 06/16/2024 05:22:14 -0.18, 61.33 0.05, 60.27 120.73 80
8 06/17/2024 04:58:51 -0.20, 61.33 -1.10, 65.27 449.59 80
9 06/18/2024 17:20:25 0.18, 61.33 0.04, 60.69 73.26 80
10 06/19/2024 16:57:03 0.20, 61.33 1.19, 65.68 496.94 80
11 06/21/2024 05:18:28 -0.17, 61.31 -0.15, 61.14 18.70 80
